Tiempo cada hora Çaycuma

Hoy, 16 Enero, Sábado

Tiempo Temperatura Precipitaciones Viento Presión Humedad
00:00 +2°C° 0.1 mm 1 mps 759 mmHg 93%
01:00 +2°C° 0.1 mm 1 mps 758 mmHg 93%
02:00 +1°C° 0.1 mm 1 mps 758 mmHg 93%
03:00 +1°C° 0 mm 1 mps 758 mmHg 91%
04:00 +1°C° 0 mm 1 mps 757 mmHg 90%
05:00 +1°C° 0 mm 1 mps 757 mmHg 89%
06:00 -1°C° 0 mm 2 mps 757 mmHg 87%
07:00 -1°C° 0 mm 2 mps 756 mmHg 85%
08:00 -1°C° 0 mm 2 mps 756 mmHg 82%
09:00 +1°C° 0 mm 2 mps 756 mmHg 78%
10:00 +4°C° 0 mm 1 mps 755 mmHg 73%
11:00 +5°C° 0 mm 1 mps 755 mmHg 69%
12:00 +4°C° 0 mm 2 mps 754 mmHg 70%
13:00 +5°C° 0 mm 2 mps 753 mmHg 71%
14:00 +5°C° 0 mm 2 mps 752 mmHg 72%
15:00 +4°C° 0 mm 2 mps 752 mmHg 75%
16:00 +4°C° 0 mm 2 mps 752 mmHg 79%
17:00 +3°C° 0 mm 2 mps 751 mmHg 82%
18:00 +3°C° 0.3 mm 2 mps 751 mmHg 86%
19:00 +2°C° 0.3 mm 2 mps 750 mmHg 90%
20:00 +2°C° 0.3 mm 2 mps 749 mmHg 94%
21:00 +2°C° 1.6 mm 2 mps 749 mmHg 95%
22:00 +2°C° 1.6 mm 2 mps 748 mmHg 96%
23:00 +2°C° 1.6 mm 2 mps 748 mmHg 98%

Mañana, 17 Enero, Domingo

Tiempo Temperatura Precipitaciones Viento Presión Humedad
00:00 +2°C° 1.3 mm 2 mps 748 mmHg 98%
01:00 +1°C° 1.3 mm 3 mps 748 mmHg 98%
02:00 +1°C° 1.3 mm 3 mps 748 mmHg 98%
03:00 +1°C° 1.8 mm 3 mps 748 mmHg 98%
04:00 +1°C° 1.8 mm 3 mps 749 mmHg 98%
05:00 +2°C° 1.8 mm 3 mps 749 mmHg 98%
06:00 +2°C° 1.8 mm 3 mps 750 mmHg 98%
07:00 +2°C° 1.8 mm 3 mps 750 mmHg 98%
08:00 +1°C° 1.8 mm 4 mps 751 mmHg 98%
09:00 +1°C° 1.3 mm 4 mps 751 mmHg 98%
10:00 +1°C° 1.3 mm 4 mps 751 mmHg 98%
11:00 +1°C° 1.3 mm 5 mps 752 mmHg 98%
12:00 +1°C° 1.7 mm 5 mps 752 mmHg 98%
13:00 +1°C° 1.7 mm 5 mps 752 mmHg 98%
14:00 0°C° 1.7 mm 5 mps 752 mmHg 98%
15:00 0°C° 2 mm 5 mps 753 mmHg 98%
16:00 0°C° 2 mm 4 mps 753 mmHg 98%
17:00 -1°C° 2 mm 4 mps 754 mmHg 97%
18:00 -1°C° 1.5 mm 4 mps 754 mmHg 97%
19:00 -1°C° 1.5 mm 4 mps 755 mmHg 97%
20:00 -1°C° 1.5 mm 5 mps 755 mmHg 97%
21:00 -1°C° 1 mm 5 mps 756 mmHg 95%
22:00 -2°C° 1 mm 5 mps 756 mmHg 94%
23:00 -2°C° 1 mm 5 mps 757 mmHg 93%

Pasado mañana, 18 Enero, Lunes

Tiempo Temperatura Precipitaciones Viento Presión Humedad
00:00 -2°C° 0.4 mm 4 mps 757 mmHg 92%
01:00 -3°C° 0.4 mm 4 mps 757 mmHg 92%
02:00 -2°C° 0.4 mm 3 mps 758 mmHg 91%
03:00 -2°C° 0.5 mm 3 mps 758 mmHg 92%
04:00 -4°C° 0.5 mm 3 mps 758 mmHg 93%
05:00 -4°C° 0.5 mm 3 mps 758 mmHg 93%
06:00 -4°C° 0.8 mm 3 mps 759 mmHg 92%
07:00 -5°C° 0.8 mm 3 mps 759 mmHg 90%
08:00 -5°C° 0.8 mm 3 mps 760 mmHg 89%
09:00 -4°C° 0.4 mm 4 mps 760 mmHg 87%
10:00 -3°C° 0.4 mm 4 mps 760 mmHg 84%
11:00 -2°C° 0.4 mm 4 mps 761 mmHg 82%
12:00 -2°C° 0.6 mm 4 mps 761 mmHg 84%
13:00 -2°C° 0.6 mm 4 mps 761 mmHg 87%
14:00 -1°C° 0.6 mm 3 mps 760 mmHg 90%
15:00 -2°C° 0.5 mm 3 mps 761 mmHg 91%
16:00 -3°C° 0.5 mm 2 mps 761 mmHg 91%
17:00 -3°C° 0.5 mm 2 mps 762 mmHg 92%
18:00 -4°C° 0.2 mm 2 mps 762 mmHg 91%
19:00 -4°C° 0.2 mm 2 mps 763 mmHg 90%
20:00 -5°C° 0.2 mm 2 mps 763 mmHg 89%
21:00 -6°C° 0.2 mm 2 mps 763 mmHg 88%
22:00 -6°C° 0.2 mm 2 mps 763 mmHg 87%
23:00 -7°C° 0.2 mm 2 mps 763 mmHg 86%

19 Enero, Martes

Tiempo Temperatura Precipitaciones Viento Presión Humedad
00:00 -7°C° 0.3 mm 2 mps 763 mmHg 88%
01:00 -7°C° 0.3 mm 2 mps 763 mmHg 89%
02:00 -8°C° 0.3 mm 3 mps 764 mmHg 91%
03:00 -8°C° 0.2 mm 3 mps 764 mmHg 92%
04:00 -8°C° 0.2 mm 3 mps 764 mmHg 93%
05:00 -8°C° 0.2 mm 3 mps 764 mmHg 94%
06:00 -8°C° 0.1 mm 3 mps 764 mmHg 92%
07:00 -8°C° 0.1 mm 3 mps 764 mmHg 91%
08:00 -8°C° 0.1 mm 3 mps 764 mmHg 90%
09:00 -6°C° 0.1 mm 3 mps 764 mmHg 88%
10:00 -4°C° 0.1 mm 3 mps 764 mmHg 86%
11:00 -1°C° 0.1 mm 2 mps 764 mmHg 84%
12:00 -1°C° 0.2 mm 3 mps 763 mmHg 87%
13:00 0°C° 0.2 mm 3 mps 763 mmHg 89%
14:00 0°C° 0.2 mm 3 mps 763 mmHg 91%
15:00 -1°C° 0.3 mm 3 mps 763 mmHg 91%
16:00 -2°C° 0.3 mm 2 mps 763 mmHg 92%
17:00 -2°C° 0.3 mm 2 mps 764 mmHg 93%
18:00 -3°C° 0.4 mm 2 mps 764 mmHg 93%
19:00 -3°C° 0.4 mm 2 mps 764 mmHg 93%
20:00 -3°C° 0.4 mm 2 mps 765 mmHg 93%
21:00 -3°C° 0.3 mm 2 mps 765 mmHg 94%
22:00 -4°C° 0.3 mm 2 mps 765 mmHg 95%
23:00 -4°C° 0.3 mm 2 mps 765 mmHg 96%

20 Enero, Miércoles

Tiempo Temperatura Precipitaciones Viento Presión Humedad
00:00 -5°C° 0.2 mm 3 mps 765 mmHg 95%
01:00 -5°C° 0.2 mm 3 mps 766 mmHg 94%
02:00 -6°C° 0.2 mm 3 mps 766 mmHg 93%
03:00 -6°C° 0.3 mm 3 mps 766 mmHg 92%
04:00 -6°C° 0.3 mm 3 mps 766 mmHg 91%
05:00 -7°C° 0.3 mm 3 mps 766 mmHg 90%
06:00 -6°C° 0.9 mm 3 mps 767 mmHg 92%
07:00 -6°C° 0.9 mm 3 mps 767 mmHg 94%
08:00 -5°C° 0.9 mm 3 mps 767 mmHg 96%
09:00 -3°C° 0.6 mm 2 mps 767 mmHg 95%
10:00 -2°C° 0.6 mm 2 mps 767 mmHg 94%
11:00 -1°C° 0.6 mm 2 mps 768 mmHg 94%
12:00 -1°C° 0.4 mm 2 mps 767 mmHg 93%
13:00 +1°C° 0.4 mm 2 mps 767 mmHg 92%
14:00 +1°C° 0.4 mm 2 mps 767 mmHg 91%
15:00 -1°C° 0.1 mm 2 mps 767 mmHg 92%
16:00 0°C° 0.1 mm 1 mps 768 mmHg 92%
17:00 -1°C° 0.1 mm 1 mps 768 mmHg 92%
18:00 -4°C° 0 mm 2 mps 768 mmHg 90%
19:00 -5°C° 0 mm 2 mps 768 mmHg 89%
20:00 -5°C° 0 mm 2 mps 769 mmHg 87%
21:00 -6°C° 0 mm 2 mps 769 mmHg 86%
22:00 -6°C° 0 mm 2 mps 769 mmHg 85%
23:00 -8°C° 0 mm 3 mps 769 mmHg 85%

21 Enero, Jueves

Tiempo Temperatura Precipitaciones Viento Presión Humedad
00:00 -8°C° 0 mm 3 mps 769 mmHg 84%
01:00 -8°C° 0 mm 3 mps 769 mmHg 83%
02:00 -8°C° 0 mm 3 mps 769 mmHg 82%
03:00 -8°C° 0 mm 3 mps 769 mmHg 80%
04:00 -9°C° 0 mm 3 mps 769 mmHg 79%
05:00 -9°C° 0 mm 3 mps 769 mmHg 78%
06:00 -8°C° 0 mm 3 mps 769 mmHg 78%
07:00 -8°C° 0 mm 3 mps 769 mmHg 78%
08:00 -8°C° 0 mm 3 mps 770 mmHg 77%
09:00 -5°C° 0 mm 3 mps 769 mmHg 80%
10:00 -2°C° 0 mm 3 mps 769 mmHg 82%
11:00 +2°C° 0 mm 2 mps 769 mmHg 84%
12:00 +2°C° 0 mm 2 mps 769 mmHg 88%
13:00 +3°C° 0 mm 2 mps 768 mmHg 91%
14:00 +3°C° 0 mm 2 mps 768 mmHg 95%
15:00 +3°C° 0 mm 2 mps 768 mmHg 92%
16:00 +2°C° 0 mm 2 mps 768 mmHg 89%
17:00 +1°C° 0 mm 2 mps 768 mmHg 86%
18:00 -1°C° 0 mm 2 mps 768 mmHg 84%
19:00 -1°C° 0 mm 3 mps 768 mmHg 82%
20:00 -2°C° 0 mm 3 mps 768 mmHg 80%
21:00 -4°C° 0 mm 3 mps 768 mmHg 79%
22:00 -4°C° 0 mm 3 mps 768 mmHg 78%
23:00 -5°C° 0 mm 3 mps 768 mmHg 77%
Mostrar más